Location: Eimen
(51.8766°N, 9.7806°E)
Time: 10:30:13
(UTC+00:00)

SL-8 R/B - Pass Details

Date: 23 May 2024
Orbit: 652 x 662 km, 48.4° (Epoch: 23 June)

Event Time Altitude Azimuth Distance (km) Brightness Sun altitude
Rises 00:58:30 0° 278° (W) 2,977 6.9 -14.2°
Reaches altitude 10° 01:01:03 10° 268° (W) 2,065 6.0 -14.0°
Maximum altitude 01:05:10 29° 208° (SSW) 1,187 4.4 -13.8°
Drops below altitude 10° 01:09:17 10° 148° (SSE) 2,064 5.9 -13.5°
Sets 01:11:51 0° 137° (SE) 2,975 6.9 -13.3°
